Location: Zagreb
(45.8000°N, 16.0000°E)
Time: 03:07:44
(UTC+02:00)

Transit 2A Rocket - Pass Details

Date: 24 January 2022
Orbit: 592 x 909 km, 66.7° (Epoch: 26 May)

Event Time Altitude Azimuth Distance (km) Brightness Sun altitude
Rises 19:59:58 0° 235° (SW) 3,492 9.0 -32.9°
Reaches altitude 10° 20:02:36 10° 243° (WSW) 2,576 8.3 -33.3°
Maximum altitude 20:08:18 42° 313° (NW) 1,285 6.3 -34.3°
Enters shadow 20:08:42 41° 323° (NW) 1,295 6.3 -34.4°
Drops below altitude 10° 20:14:01 10° 23° (NNE) 2,583 - -35.3°
Sets 20:16:40 0° 31° (NNE) 3,504 - -35.8°
